This demonstration page uses our WeatherBlox Daily Observations layout. Learn more.

38.88101, -77.10428

Hourly Observations for August 22, 2018

Temp ( °F °C ) Dew Point ( °F °C ) Humidity (%) Winds ( mph kmh ) Pressure ( in mb ) Visibility ( mi km ) Precip ( " mm )
12:52 am 00:52 Mostly Cloudy 77 25 74 23.3 90 90 SSW 7 11 29.82 1010 10 16.0934 0.06 1.524
1:01 am 01:01 Mostly Cloudy 77 25 74 23.3 90 90 SSW 7 11 29.8 1009 10 16.0934 0 0
1:52 am 01:52 Mostly Cloudy 76 24.4 73 22.8 91 91 SW 3 6 29.8 1009 10 16.0934 0 0
2:52 am 02:52 Mostly Clear 75 23.9 71 21.7 88 88 WSW 7 11 29.79 1009 10 16.0934 0 0
3:52 am 03:52 Mostly Clear 74 23.3 69 20.6 85 85 SSW 3 6 29.79 1009 10 16.0934 0 0
4:52 am 04:52 Clear 73 22.8 69 20.6 87 87 SSW 5 7 29.78 1009 10 16.0934 0 0
5:52 am 05:52 Mostly Clear 72 22.2 68 20 87 87 S 3 6 29.78 1009 10 16.0934 0 0
6:52 am 06:52 Mostly Sunny 73 22.8 68 20 84 84 SSW 6 9 29.79 1009 10 16.0934 0 0
7:52 am 07:52 Mostly Sunny 75 23.9 70 21.1 84 84 SW 6 9 29.8 1009 10 16.0934 0 0
8:52 am 08:52 Partly Cloudy 78 25.6 70 21.1 76 76 SSW 7 11 29.81 1010 10 16.0934 0 0
9:52 am 09:52 Cloudy 81 27.2 68 20 65 65 W 9 15 29.83 1010 10 16.0934 0 0
10:52 am 10:52 Mostly Cloudy 81 27.2 67 19.4 62 62 WNW 9 15 29.83 1010 10 16.0934 0 0
11:52 am 11:52 Mostly Cloudy 82 27.8 68 20 63 63 NW 8 13 29.83 1010 10 16.0934 0 0
12:52 pm 12:52 Cloudy with Light Rain 78 25.6 68 20 71 71 NNW 8 13 29.84 1011 7 11.26538 0 0.0254
1:52 pm 13:52 Mostly Cloudy with Light Rain 78 25.6 71 21.7 79 79 WSW 6 9 29.84 1011 10 16.0934 0.01 0.254
2:52 pm 14:52 Mostly Cloudy 82 27.8 66 18.9 58 58 NW 12 19 29.83 1010 10 16.0934 0.01 0.254
3:52 pm 15:52 Mostly Cloudy 84 28.9 64 17.8 51 51 NW 8 13 29.82 1010 10 16.0934 0 0
4:52 pm 16:52 Mostly Cloudy 84 28.9 64 17.8 51 51 WNW 5 7 29.81 1010 10 16.0934 0 0
5:52 pm 17:52 Mostly Cloudy 85 29.4 63 17.2 48 48 W 9 15 29.8 1009 10 16.0934 0 0
6:52 pm 18:52 Partly Cloudy 82 27.8 61 16.1 49 49 W 10 17 29.82 1010 10 16.0934 0 0
7:52 pm 19:52 Mostly Sunny 81 27.2 61 16.1 51 51 WNW 10 17 29.85 1011 10 16.0934 0 0
8:52 pm 20:52 Mostly Clear 80 26.7 59 15 49 49 NNW 9 15 29.87 1012 10 16.0934 0 0
9:52 pm 21:52 Clear 76 24.4 60 15.6 58 58 NNW 10 17 29.9 1013 10 16.0934 0 0
10:52 pm 22:52 Mostly Cloudy 75 23.9 59 15 58 58 NNW 9 15 29.92 1013 10 16.0934 0 0
11:52 pm 23:52 Mostly Clear 74 23.3 58 14.4 57 57 NW 8 13 29.93 1013 10 16.0934 0 0

Powered by AerisWeather